This demonstration page uses our WeatherBlox Daily Observations layout. Learn more.

Left ArrowRight Arrow

Hourly Observations for February 15, 2022

Temp ( °F °C ) Dew Point ( °F °C ) Humidity (%) Winds ( mph kmh ) Pressure ( in mb ) Visibility ( mi km ) Precip ( " mm )
12:56 am 00:56 Clear 28 -2.2 14 -10 56 56 SE 13 20 30.06 1018 10 16 0.00 0.00
1:56 am 01:56 Clear 26 -3.3 13 -10.6 57 57 SE 12 19 30.04 1017 10 16 0.00 0.00
2:56 am 02:56 Clear 25 -3.9 13 -10.6 60 60 ESE 9 15 30.01 1016 10 16 0.00 0.00
3:56 am 03:56 Clear 25 -3.9 14 -10 63 63 ESE 9 15 29.96 1015 10 16 0.00 0.00
4:56 am 04:56 Clear 25 -3.9 14 -10 63 63 SE 9 15 29.93 1014 10 16 0.00 0.00
5:56 am 05:56 Clear 22 -5.6 14 -10 71 71 SE 7 11 29.93 1013 10 16 0.00 0.00
6:56 am 06:56 Clear 20 -6.7 12 -11.1 71 71 ESE 3 6 29.91 1013 10 16 0.00 0.00
7:56 am 07:56 Sunny 18 -7.8 11 -11.7 74 74 E 5 7 29.91 1013 9 14 0.00 0.00
8:56 am 08:56 Sunny 24 -4.4 16 -8.9 71 71 SE 6 9 29.89 1012 10 16 0.00 0.00
9:56 am 09:56 Sunny 31 -0.6 20 -6.7 64 64 SSE 14 22 29.84 1011 10 16 0.00 0.00
10:56 am 10:56 Sunny 41 5 22 -5.6 47 47 S 13 20 29.81 1010 10 16 0.00 0.00
11:56 am 11:56 Sunny 45 7.2 23 -5 42 42 S 13 20 29.77 1008 10 16 0.00 0.00
12:56 pm 12:56 Sunny 49 9.4 23 -5 36 36 S 15 24 29.73 1007 10 16 0.00 0.00
1:56 pm 13:56 Sunny 50 10 23 -5 35 35 S 14 22 29.69 1006 10 16 0.00 0.00
2:56 pm 14:56 Sunny 52 11.1 23 -5 32 32 S 18 30 29.67 1005 10 16 0.00 0.00
3:56 pm 15:56 Sunny 53 11.7 23 -5 31 31 S 15 24 29.65 1004 10 16 0.00 0.00
4:56 pm 16:56 Sunny 53 11.7 23 -5 31 31 SSW 8 13 29.64 1004 10 16 0.00 0.00
5:56 pm 17:56 Sunny 50 10 23 -5 35 35 WSW 6 9 29.65 1004 10 16 0.00 0.00
6:56 pm 18:56 Clear 47 8.3 23 -5 39 39 WSW 5 7 29.66 1004 10 16 0.00 0.00
7:56 pm 19:56 Clear 43 6.1 22 -5.6 43 43 WSW 5 7 29.67 1005 10 16 0.00 0.00
8:56 pm 20:56 Clear 37 2.8 20 -6.7 50 50 WSW 6 9 29.67 1005 10 16 0.00 0.00
9:56 pm 21:56 Clear 36 2.2 19 -7.2 50 50 WNW 3 6 29.67 1005 10 16 0.00 0.00
10:56 pm 22:56 Clear 31 -0.6 19 -7.2 61 61 WNW 3 6 29.65 1004 10 16 0.00 0.00
11:56 pm 23:56 Clear 34 1.1 20 -6.7 56 56 NW 6 9 29.65 1004 10 16 0.00 0.00

Powered by AerisWeather